Decatur, IL

2:58 PM CDT on April 27, 2017 (GMT -0500)
Decatur

Weather History for KDEC - October, 2011

Change the Weather History Date:

Tuesday, October 11, 2011

  Actual Average Record
Temperature  
Mean Temperature 66 °F 56 °F  
Max Temperature 80 °F 68 °F 83 °F (2008)
Min Temperature 51 °F 44 °F 28 °F (1996)
Degree Days  
Heating Degree Days 0 10  
Month to date heating degree days 44 92  
Since 1 July heating degree days 149 165  
Cooling Degree Days 1 1  
Month to date cooling degree days 4 12  
Year to date cooling degree days 1327 1041  
Growing Degree Days 16 (Base 50)    
Moisture  
Dew Point 53 °F    
Average Humidity 68    
Maximum Humidity 93    
Minimum Humidity 42    
Precipitation  
Precipitation 0.00 in 0.08 in 0.83 in (2001)
Month to date precipitation 0.00 1.08  
Year to date precipitation 26.55 30.28  
Sea Level Pressure  
Sea Level Pressure 29.97 in    
Wind  
Wind Speed 2 mph (ESE)    
Max Wind Speed 9 mph    
Max Gust Speed 41 mph    
Visibility 10 miles    
Events      
T = Trace of Precipitation, MM = Missing Value Source: NWS Daily Summary

Daily Weather History Graph

Daily Weather History Graph

Search for Another Location

Airport or City:

Trip Planner

Search our weather history database for the weather conditions in past years. The results will help you decide how hot, cold, wet, or windy it might be!

Date:

Astronomy

Oct. 11, 2011 Rise Set
Actual Time 7:01 AM CDT 6:22 PM CDT
Civil Twilight 6:34 AM CDT 6:49 PM CDT
Nautical Twilight 6:03 AM CDT 7:20 PM CDT
Astronomical Twilight 5:31 AM CDT 7:52 PM CDT
Moon 5:54 PM CDT (10/11) 6:39 AM CDT (10/11)
Length of Visible Light 12h 15m
Length of Day
11h 21m
Full, 100% of the Moon is Illuminated
Oct 11
Full
Oct 11
Full
Oct 19
Last Quarter
Oct 26
New
Nov 2
First Quarter

Hourly Weather History & Observations

Time (CDT) Temp. Dew Point Humidity Pressure Visibility Wind Dir Wind Speed Gust Speed Precip Events Conditions
12:54 AM 54.0 °F 50.0 °F 86% 30.04 in 10.0 mi Calm Calm - N/A   Clear
1:54 AM 54.0 °F 50.0 °F 86% 30.03 in 10.0 mi Calm Calm - N/A   Clear
2:54 AM 53.1 °F 48.9 °F 86% 30.03 in 10.0 mi Calm Calm - N/A   Clear
3:54 AM 53.1 °F 50.0 °F 89% 30.02 in 10.0 mi East 3.5 mph - N/A   Partly Cloudy
4:54 AM 52.0 °F 48.9 °F 89% 30.03 in 9.0 mi Calm Calm - N/A   Clear
5:54 AM 52.0 °F 48.0 °F 86% 30.04 in 10.0 mi Calm Calm - N/A   Partly Cloudy
6:54 AM 54.0 °F 51.1 °F 90% 30.04 in 10.0 mi Calm Calm - N/A   Mostly Cloudy
7:54 AM 55.9 °F 53.1 °F 90% 30.04 in 8.0 mi ENE 3.5 mph - N/A   Overcast
8:54 AM 61.0 °F 55.0 °F 81% 30.03 in 10.0 mi Calm Calm - N/A   Partly Cloudy
9:54 AM 66.0 °F 57.0 °F 73% 30.02 in 10.0 mi East 3.5 mph - N/A   Clear
10:54 AM 73.9 °F 55.9 °F 53% 30.01 in 10.0 mi SE 4.6 mph - N/A   Clear
11:54 AM 78.1 °F 55.0 °F 45% 29.99 in 10.0 mi Variable 3.5 mph - N/A   Clear
12:54 PM 78.1 °F 54.0 °F 43% 29.96 in 10.0 mi Variable 3.5 mph - N/A   Scattered Clouds
1:54 PM 79.0 °F 54.0 °F 42% 29.94 in 10.0 mi SSW 4.6 mph - N/A   Mostly Cloudy
2:54 PM 78.8 °F 53.6 °F 42% 29.94 in 10.0 mi South 3.5 mph - N/A   Overcast
3:54 PM 79.0 °F 54.0 °F 42% 29.92 in 10.0 mi Calm Calm - N/A   Mostly Cloudy
4:54 PM 78.1 °F 54.0 °F 43% 29.90 in 10.0 mi Calm Calm - N/A   Partly Cloudy
5:54 PM 77.0 °F 55.0 °F 47% 29.89 in 10.0 mi Calm Calm - N/A   Clear
6:54 PM 66.9 °F 57.0 °F 70% 29.90 in 10.0 mi NE 3.5 mph - N/A   Clear
7:54 PM 64.9 °F 53.1 °F 65% 29.90 in 10.0 mi Calm Calm - N/A   Clear
8:54 PM 64.0 °F 54.0 °F 70% 29.91 in 10.0 mi Calm Calm - N/A   Mostly Cloudy
9:54 PM 63.0 °F 54.0 °F 72% 29.91 in 10.0 mi ESE 6.9 mph - N/A   Overcast
10:54 PM 63.0 °F 51.1 °F 65% 29.90 in 10.0 mi SE 6.9 mph - N/A   Partly Cloudy
11:54 PM 61.0 °F 50.0 °F 67% 29.89 in 10.0 mi SE 5.8 mph - N/A   Clear